TimeMST,TemperatureF,Dew PointF,Humidity,Sea Level PressureIn,VisibilityMPH,Wind Direction,Wind SpeedMPH,Gust SpeedMPH,PrecipitationIn,Events,Conditions,WindDirDegrees,DateUTC
12:15 AM,44.6,21.2,39,29.72,10.0,SSE,18.4,27.6,N/A,,Mostly Cloudy,150,2013-03-06 07:15:00
12:35 AM,44.6,21.2,39,29.72,10.0,SSE,21.9,-,N/A,,Mostly Cloudy,160,2013-03-06 07:35:00
12:55 AM,44.6,21.2,39,29.71,10.0,SSE,21.9,31.1,N/A,,Overcast,160,2013-03-06 07:55:00
1:15 AM,44.6,21.2,39,29.70,10.0,SSE,17.3,27.6,N/A,,Overcast,160,2013-03-06 08:15:00
1:35 AM,44.6,21.2,39,29.72,10.0,South,19.6,24.2,N/A,,Overcast,170,2013-03-06 08:35:00
1:55 AM,44.6,21.2,39,29.73,10.0,South,17.3,23.0,N/A,,Overcast,170,2013-03-06 08:55:00
2:15 AM,44.6,21.2,39,29.73,10.0,South,18.4,25.3,N/A,,Overcast,180,2013-03-06 09:15:00
2:35 AM,42.8,26.6,53,29.73,10.0,South,20.7,33.4,N/A,,Overcast,170,2013-03-06 09:35:00
2:55 AM,42.8,24.8,49,29.73,10.0,SSE,15.0,-,N/A,,Overcast,160,2013-03-06 09:55:00
3:15 AM,42.8,24.8,49,29.72,10.0,SSE,13.8,19.6,N/A,,Overcast,160,2013-03-06 10:15:00
3:35 AM,42.8,24.8,49,29.71,10.0,ESE,10.4,-,N/A,,Overcast,120,2013-03-06 10:35:00
3:55 AM,42.8,23.0,46,29.69,10.0,East,16.1,-,N/A,,Overcast,100,2013-03-06 10:55:00
4:15 AM,41.0,23.0,49,29.69,10.0,East,16.1,20.7,N/A,,Overcast,100,2013-03-06 11:15:00
4:35 AM,41.0,23.0,49,29.69,10.0,East,11.5,-,N/A,,Overcast,90,2013-03-06 11:35:00
4:55 AM,39.2,21.2,49,29.70,10.0,SE,9.2,-,N/A,,Partly Cloudy,130,2013-03-06 11:55:00
5:15 AM,39.2,21.2,49,29.69,10.0,SE,8.1,-,N/A,,Clear,140,2013-03-06 12:15:00
5:35 AM,37.4,21.2,52,29.69,10.0,South,3.5,-,N/A,,Clear,170,2013-03-06 12:35:00
5:55 AM,35.6,21.2,56,29.68,10.0,SSE,8.1,-,N/A,,Clear,150,2013-03-06 12:55:00
6:15 AM,39.2,21.2,49,29.69,10.0,South,9.2,-,N/A,,Mostly Cloudy,170,2013-03-06 13:15:00
6:35 AM,39.2,21.2,49,29.69,10.0,South,6.9,-,N/A,,Scattered Clouds,170,2013-03-06 13:35:00
6:55 AM,39.2,21.2,49,29.69,10.0,SSW,3.5,-,N/A,,Scattered Clouds,210,2013-03-06 13:55:00
7:15 AM,39.2,24.8,56,29.69,10.0,WSW,6.9,-,N/A,,Overcast,240,2013-03-06 14:15:00
7:35 AM,41.0,23.0,49,29.68,10.0,South,11.5,-,N/A,,Mostly Cloudy,180,2013-03-06 14:35:00
7:55 AM,41.0,23.0,49,29.68,10.0,South,10.4,-,N/A,,Partly Cloudy,180,2013-03-06 14:55:00
8:15 AM,42.8,23.0,46,29.69,10.0,SSE,16.1,-,N/A,,Mostly Cloudy,150,2013-03-06 15:15:00
8:35 AM,42.8,24.8,49,29.67,10.0,SSE,18.4,24.2,N/A,,Mostly Cloudy,150,2013-03-06 15:35:00
8:55 AM,44.6,24.8,46,29.67,10.0,SSE,13.8,-,N/A,,Mostly Cloudy,160,2013-03-06 15:55:00
9:15 AM,44.6,23.0,43,29.68,10.0,SSE,13.8,-,N/A,,Mostly Cloudy,160,2013-03-06 16:15:00
9:35 AM,44.6,23.0,43,29.68,10.0,SSE,17.3,-,N/A,,Overcast,150,2013-03-06 16:35:00
9:55 AM,44.6,23.0,43,29.68,10.0,SE,18.4,-,N/A,,Overcast,140,2013-03-06 16:55:00
10:15 AM,46.4,24.8,43,29.68,10.0,SSE,11.5,-,N/A,,Overcast,150,2013-03-06 17:15:00
10:35 AM,48.2,26.6,43,29.68,10.0,SSE,13.8,17.3,N/A,,Overcast,150,2013-03-06 17:35:00
10:55 AM,51.8,26.6,38,29.68,10.0,SE,10.4,-,N/A,,Overcast,130,2013-03-06 17:55:00
11:15 AM,53.6,28.4,38,29.66,10.0,ESE,8.1,-,N/A,,Mostly Cloudy,120,2013-03-06 18:15:00
11:35 AM,55.4,30.2,38,29.65,10.0,South,6.9,-,N/A,,Scattered Clouds,180,2013-03-06 18:35:00
11:55 AM,53.6,28.4,38,29.69,8.0,West,38.0,50.6,N/A,Thunderstorm,Mostly Cloudy,270,2013-03-06 18:55:00
12:15 PM,42.8,32.0,66,29.74,10.0,WNW,21.9,34.5,N/A,,Overcast,290,2013-03-06 19:15:00
12:35 PM,42.8,32.0,66,29.75,10.0,West,13.8,-,N/A,,Mostly Cloudy,260,2013-03-06 19:35:00
12:55 PM,44.6,32.0,61,29.73,10.0,WSW,9.2,17.3,N/A,,Mostly Cloudy,240,2013-03-06 19:55:00
2:15 PM,55.4,23.0,29,29.70,10.0,SW,26.5,33.4,N/A,,Clear,230,2013-03-06 21:15:00
2:35 PM,55.4,21.2,26,29.69,10.0,WSW,18.4,28.8,N/A,,Partly Cloudy,240,2013-03-06 21:35:00
2:55 PM,57.2,19.4,23,29.70,10.0,WSW,24.2,32.2,N/A,,Scattered Clouds,240,2013-03-06 21:55:00
3:15 PM,59.0,19.4,22,29.70,10.0,SW,28.8,34.5,N/A,,Mostly Cloudy,230,2013-03-06 22:15:00
3:35 PM,57.2,17.6,21,29.69,10.0,SW,23.0,28.8,N/A,,Partly Cloudy,230,2013-03-06 22:35:00
3:55 PM,55.4,19.4,25,29.71,10.0,West,20.7,31.1,N/A,,Mostly Cloudy,270,2013-03-06 22:55:00
4:15 PM,53.6,19.4,26,29.73,10.0,WSW,28.8,36.8,N/A,,Mostly Cloudy,240,2013-03-06 23:15:00
4:35 PM,51.8,19.4,28,29.74,10.0,SW,17.3,29.9,N/A,,Partly Cloudy,230,2013-03-06 23:35:00
4:55 PM,50.0,21.2,32,29.75,10.0,SW,15.0,-,N/A,,Clear,220,2013-03-06 23:55:00
5:15 PM,51.8,19.4,28,29.76,10.0,WSW,18.4,28.8,N/A,,Clear,250,2013-03-07 00:15:00
5:35 PM,51.8,19.4,28,29.77,10.0,West,21.9,32.2,N/A,,Clear,270,2013-03-07 00:35:00
5:55 PM,48.2,21.2,34,29.79,10.0,West,20.7,36.8,N/A,,Scattered Clouds,280,2013-03-07 00:55:00
6:15 PM,46.4,21.2,37,29.81,10.0,West,18.4,25.3,N/A,,Partly Cloudy,270,2013-03-07 01:15:00
6:35 PM,46.4,24.8,43,29.83,10.0,West,17.3,23.0,N/A,,Mostly Cloudy,260,2013-03-07 01:35:00
6:55 PM,44.6,23.0,43,29.84,10.0,WSW,12.7,19.6,N/A,,Mostly Cloudy,240,2013-03-07 01:55:00
7:35 PM,44.6,23.0,43,29.86,10.0,WSW,8.1,-,N/A,,Mostly Cloudy,240,2013-03-07 02:35:00
7:55 PM,42.8,21.2,42,29.88,10.0,WSW,6.9,-,N/A,,Partly Cloudy,240,2013-03-07 02:55:00
8:35 PM,42.8,21.2,42,29.89,10.0,West,5.8,-,N/A,,Clear,280,2013-03-07 03:35:00
8:55 PM,41.0,21.2,45,29.91,10.0,WSW,5.8,-,N/A,,Clear,250,2013-03-07 03:55:00
9:15 PM,42.8,21.2,42,29.91,10.0,WSW,8.1,-,N/A,,Scattered Clouds,240,2013-03-07 04:15:00
9:35 PM,42.8,21.2,42,29.92,10.0,SW,5.8,-,N/A,,Scattered Clouds,220,2013-03-07 04:35:00
9:55 PM,37.4,19.4,48,29.94,10.0,East,6.9,-,N/A,,Partly Cloudy,100,2013-03-07 04:55:00
10:15 PM,39.2,21.2,49,29.94,10.0,NE,5.8,-,N/A,,Scattered Clouds,40,2013-03-07 05:15:00
10:35 PM,41.0,21.2,45,29.95,10.0,West,5.8,-,N/A,,Partly Cloudy,270,2013-03-07 05:35:00
10:55 PM,39.2,21.2,49,29.96,10.0,West,4.6,-,N/A,,Clear,270,2013-03-07 05:55:00
11:15 PM,37.4,21.2,52,29.96,10.0,Calm,Calm,-,N/A,,Clear,0,2013-03-07 06:15:00
11:35 PM,37.4,21.2,52,29.98,10.0,South,3.5,-,N/A,,Clear,170,2013-03-07 06:35:00
11:55 PM,35.6,21.2,56,29.98,10.0,SSW,6.9,-,N/A,,Clear,200,2013-03-07 06:55:00